Showing default

S-NET B, 43187

Orbit data source: Space-Track

S-NET B, 43187 is a payload satellite owned by TUB (DE) in SSO that was launched on Thu, 01 Feb 2018 UTC via a SOYUZ-2-1A launch vehicle from the Vostochny Cosmodrome (VOSTO). Payload-class satellites include a variety of spacecraft equipped with specific instruments for various scientific and technological missions. These include communications satellites like Starlink; space stations such as the ISS; scientific satellites like the Hubble; Earth observation satellites from companies like Planet Labs, Umbra, and HawkEye 360; GPS; miniature CubeSats for education and research; and military/defense satellites.

Loading next visibility...
Identifier
43187, 2018-014H
Orbit
SSO
Last TLE update
7 hours ago
Origin
Manufacturer
TUB
Mission
Operational Commercial Com/Tech
Bus & Motor
TUBIX10, Unknown motor
Mass
8 kg wet, 8 kg dry
Launch date (UTC)
2018-02-01 (7 years ago)
Launch vehicle
SOYUZ-2-1A
Launch site
Vostochny Cosmodrome (VOSTO)
Object type
Payload
Rocket body
Debris
Shape & HBR
Box, 0.24 m
Radar Cross Section
0.086 m², Medium (>0.1 m² and < 1m²)

Expand to show TLE details & history

TLE from 7 hours ago
0 S-NET B
1 43187U 18014H   25183.60239016  .00003938  00000-0  23302-3 0  9999
2 43187  97.5609  86.2474 0010957 134.2259 225.9873 15.11979197405858
Epoch: 2025-07-02T14:27Z
TLE epoch observation values (Epoch: 2025-07-02T14:27:26.509Z)
Latitude
-0.00004°
Longitude
-51.49418°
Altitude
538.505 km
Speed
7.59 km/s
True Right ascension
05h 44m 59s
True Declination
0° 00' 00"
Sunlit
Object was in daylight at epoch
Visualization orbit readout
Latitude
54.342°
Longitude
-61.82444°
Altitude
537.617 km
Speed
7.6 km/s
Apparent Right ascension
00h 14m 25s
Apparent Declination
19° 42' 17"
Sunlit
Object is in daylight
Visualization observer readout
Local Sidereal Time
08:47:17
Azimuth
310.527° NW
Elevation
-13.318°
Doppler factor
1
Orbital elements
Apogee altitude
534.714 km
Perigee altitude
519.582 km
Semi-major axis
6,905.285 km
Eccentricity
0.0011
Inclination
97.5609°
RAAN
86.2474°
Arg. of periapsis
134.2259°
True anomaly
Unknown
Mean anomaly
225.9873°
Eccentric anomaly
Unknown
Mean motion
3.78243 °/min
Orbital period
95.18 mins
BSTAR
0.00023302
Loading maneuver chart data...
Loading SW <> Apogee altitude chart data...
Loading historical data...
Loading historical data...
Loading historical data...
Loading historical data...
Loading historical data...
Loading historical data...
Loading historical data...

S-NET B Visibility forecast

Observer location: undefined°, undefined°

Span
Click to sort rows by Start time (UTC) header in descending order
Start Az.
Max El. time (UTC)
Max El. Az.
Max El.
End time (UTC)
End Az.
5 mins2025-07-03 06:55:09.621Z338.548° N2025-07-03 06:57:09.621Z279.493° WNW30.496°2025-07-03 07:00:09.621Z221.857° SW
5 mins2025-07-03 17:36:09.621Z169.571° S2025-07-03 17:38:09.621Z252.658° W44.927°2025-07-03 17:41:09.621Z346.52° N
|